CW5171 Weather Reports


Display with metric or nautical units.
time (UTC)temp
F
wind
direction
speed
MPH
gust
MPH
rain 1hr
in
rain 24hr
in
rain mn
in
humidity
%
barometer
mb
20190617223301 63 335 3.0 4.0 0.00 0.00 0.00 65 1022.0
20190617222259 62 338 2.0 5.0 0.00 0.00 0.00 64 1021.9
20190617221257 62 338 2.0 4.0 0.00 0.00 0.00 62 1022.2
20190617220256 62 32 4.0 5.0 0.00 0.00 0.00 60 1022.2
20190617215254 63 341 3.0 6.0 0.00 0.00 0.00 58 1022.3
20190617214252 63 355 5.0 8.0 0.00 0.00 0.00 56 1022.4
20190617213250 63 23 5.0 7.0 0.00 0.00 0.00 56 1022.4
20190617212248 62 350 4.0 5.0 0.00 0.00 0.00 58 1022.5
20190617211246 62 7 4.0 8.0 0.00 0.00 0.00 58 1022.5
20190617210244 63 344 5.0 7.0 0.00 0.00 0.00 60 1023.1
20190617205242 64 355 3.0 3.0 0.00 0.00 0.00 65 1023.6
20190617204241 64 302 1.0 1.0 0.00 0.00 0.00 63 1024.0
20190617203239 64 248 1.0 4.0 0.00 0.00 0.00 59 1023.7
20190617202236 65 238 3.0 5.0 0.00 0.00 0.00 56 1023.9
20190617201235 66 213 2.0 3.0 0.00 0.00 0.00 54 1024.1
20190617200233 66 225 0.0 2.0 0.00 0.00 0.00 53 1024.3
20190617195231 67 180 1.0 5.0 0.00 0.00 0.00 52 1024.1
20190617194229 67 155 1.0 2.0 0.00 0.00 0.00 51 1024.0
20190617193227 67 145 2.0 7.0 0.00 0.00 0.00 53 1024.1
20190617192224 66 176 5.0 7.0 0.00 0.00 0.00 53 1024.0
20190617191222 64 173 5.0 6.0 0.00 0.00 0.00 54 1024.1
20190617190220 64 194 6.0 8.0 0.00 0.00 0.00 54 1024.0
20190617185219 64 225 7.0 14.0 0.00 0.00 0.00 55 1024.1
20190617184217 66 168 10.0 13.0 0.00 0.00 0.00 54 1024.3
20190617183215 67 150 9.0 13.0 0.00 0.00 0.00 53 1024.5
20190617182213 69 158 7.0 10.0 0.00 0.00 0.00 53 1025.1
20190617181212 70 210 2.0 4.0 0.00 0.00 0.00 54 1025.5
20190617180210 69 284 3.0 5.0 0.00 0.00 0.00 55 1025.6
20190617175208 69 140 3.0 5.0 0.00 0.00 0.00 57 1025.6
20190617174207 69 158 3.0 8.0 0.00 0.00 0.00 57 1026.2
20190617173204 69 248 2.0 4.0 0.00 0.00 0.00 57 1026.2
20190617172203 67 135 2.0 5.0 0.00 0.00 0.00 59 1026.0
20190617171201 68 336 3.0 5.0 0.00 0.00 0.00 58 1026.1
20190617170159 66 45 3.0 5.0 0.00 0.00 0.00 60 1026.0
20190617165158 66 22 2.0 5.0 0.00 0.00 0.00 60 1025.8
20190617164156 66 23 4.0 7.0 0.00 0.00 0.00 60 1025.3
20190617163155 64 322 4.0 8.0 0.00 0.00 0.00 63 1024.9
20190617162152 65 41 8.0 9.0 0.00 0.00 0.00 61 1024.9
20190617161150 64 0 6.0 6.0 0.00 0.00 0.00 63 1024.8
20190617160148 64 310 5.0 6.0 0.00 0.00 0.00 65 1024.8
20190617155146 62 29 4.0 9.0 0.00 0.00 0.00 68 1024.4
20190617154145 62 12 7.0 8.0 0.00 0.00 0.00 68 1024.4
20190617153143 61 357 5.0 9.0 0.00 0.00 0.00 68 1024.6
20190617152141 61 45 5.0 7.0 0.00 0.00 0.00 70 1024.7
20190617151140 60 311 3.0 9.0 0.00 0.00 0.00 70 1024.5
20190617150138 59 336 6.0 10.0 0.00 0.00 0.00 72 1024.5
20190617145136 59 12 2.0 7.0 0.00 0.00 0.00 73 1024.4
20190617144134 58 1 5.0 7.0 0.00 0.00 0.00 74 1023.9
20190617143132 57 5 3.0 5.0 0.00 0.00 0.00 74 1023.7
20190617142131 57 357 3.0 6.0 0.00 0.00 0.00 74 1023.5
20190617141129 57 2 5.0 6.0 0.00 0.00 0.00 74 1023.4
20190617140127 57 338 3.0 5.0 0.00 0.00 0.00 73 1023.3
20190617135125 56 326 4.0 8.0 0.00 0.00 0.00 73 1023.2
20190617134123 57 303 4.0 9.0 0.00 0.00 0.00 72 1023.3
20190617133121 57 336 5.0 12.0 0.00 0.00 0.00 69 1023.1
20190617132119 57 0 9.0 11.0 0.00 0.00 0.00 68 1023.1
20190617131118 57 348 4.0 8.0 0.00 0.00 0.00 69 1023.1
20190617130116 56 315 5.0 6.0 0.00 0.00 0.00 70 1023.0
20190617125114 55 329 5.0 8.0 0.00 0.00 0.00 71 1022.5
20190617124113 54 342 4.0 6.0 0.00 0.00 0.00 74 1022.3
20190617123110 53 327 1.0 2.0 0.00 0.00 0.00 77 1022.1
20190617122108 52 293 0.0 2.0 0.00 0.00 0.00 77 1021.9
20190617121107 51 329 2.0 3.0 0.00 0.00 0.00 79 1021.7
20190617120105 50 315 3.0 3.0 0.00 0.00 0.00 80 1022.0
20190617115103 50 308 2.0 2.0 0.00 0.00 0.00 80 1021.5
20190617114101 50 338 0.0 3.0 0.00 0.00 0.00 78 1021.4
20190617113059 50 270 3.0 3.0 0.00 0.00 0.00 78 1021.3
20190617112057 50 300 2.0 5.0 0.00 0.00 0.00 79 1021.3
20190617111056 49 315 3.0 3.0 0.00 0.00 0.00 79 1020.9
20190617110054 49 315 2.0 3.0 0.00 0.00 0.00 79 1020.7
20190617105053 49 270 2.0 3.0 0.00 0.00 0.00 78 1020.6
20190617104051 49 282 1.0 3.0 0.00 0.00 0.00 79 1020.6
20190617103050 49 326 4.0 4.0 0.00 0.00 0.00 80 1020.6
20190617102047 50 293 2.0 3.0 0.00 0.00 0.00 79 1020.7
20190617101046 50 302 3.0 4.0 0.00 0.00 0.00 79 1020.7
20190617100044 50 293 2.0 3.0 0.00 0.00 0.00 80 1020.7
20190617095042 50 293 1.0 2.0 0.00 0.00 0.00 79 1020.6
20190617094040 50 338 0.0 2.0 0.00 0.00 0.00 79 1020.5
20190617093038 51 293 1.0 3.0 0.00 0.00 0.00 79 1020.2
20190617092036 51 293 2.0 3.0 0.00 0.00 0.00 79 1021.4
20190617091034 51 304 2.0 3.0 0.00 0.00 0.00 78 1023.8
20190617090032 52 270 2.0 3.0 0.00 0.00 0.00 78 1024.3
20190617085030 52 0 1.0 2.0 0.00 0.00 0.00 78 1024.1
20190617084027 53 315 2.0 2.0 0.00 0.00 0.00 78 1024.5
20190617083026 53 338 0.0 2.0 0.00 0.00 0.00 77 1025.6
20190617082024 53 324 2.0 4.0 0.00 0.00 0.00 78 1025.7
20190617081023 54 280 2.0 3.0 0.00 0.00 0.00 77 1025.8
20190617080021 54 299 4.0 4.0 0.00 0.00 0.00 78 1025.6
20190617075019 53 311 2.0 3.0 0.00 0.00 0.00 78 1024.9
20190617074017 53 299 2.0 3.0 0.00 0.00 0.00 77 1024.9
20190617073015 54 315 1.0 1.0 0.00 0.00 0.00 75 1025.7
20190617072014 55 189 2.0 4.0 0.00 0.00 0.00 74 1025.8
20190617071012 55 280 4.0 4.0 0.00 0.00 0.00 76 1025.6
20190617070010 55 299 4.0 4.0 0.00 0.00 0.00 76 1025.8
20190617065008 55 303 3.0 3.0 0.00 0.00 0.00 75 1026.0
20190617064007 54 293 4.0 5.0 0.00 0.00 0.00 77 1025.7
20190617063004 54 304 4.0 5.0 0.00 0.00 0.00 76 1025.8
20190617062002 55 270 4.0 4.0 0.00 0.00 0.00 74 1026.2
20190617061001 55 285 1.0 3.0 0.00 0.00 0.00 73 1026.4
20190617055957 56 304 3.0 4.0 0.00 0.00 0.00 73 1026.5
20190617054956 57 305 2.0 2.0 0.00 0.00 0.00 71 1026.7
20190617053954 57 137 2.0 3.0 0.00 0.00 0.00 71 1026.7
20190617052952 57 135 3.0 4.0 0.00 0.00 0.00 69 1026.5
20190617051951 58 284 1.0 3.0 0.00 0.00 0.00 69 1026.7
20190617050949 58 331 2.0 3.0 0.00 0.00 0.00 70 1026.5
20190617045947 57 327 2.0 5.0 0.00 0.00 0.00 71 1026.4
20190617044946 57 315 4.0 4.0 0.00 0.00 0.00 71 1026.0
20190617043944 56 278 4.0 5.0 0.00 0.00 0.00 72 1025.8
20190617042942 56 325 3.0 5.0 0.00 0.00 0.00 71 1025.3
20190617041941 56 293 2.0 3.0 0.00 0.00 0.00 72 1025.2
20190617040939 56 322 3.0 4.0 0.00 0.00 0.00 72 1025.1
20190617035937 56 302 1.0 2.0 0.00 0.00 0.00 71 1024.9
20190617034936 56 352 1.0 3.0 0.00 0.00 0.00 71 1024.4
20190617033934 56 294 2.0 3.0 0.00 0.00 0.00 71 1024.4
20190617032931 57 279 2.0 2.0 0.00 0.00 0.00 70 1024.5
20190617031929 57 308 2.0 3.0 0.00 0.00 0.00 69 1024.5
20190617030927 58 333 1.0 2.0 0.00 0.00 0.00 68 1024.4
20190617025925 58 225 0.0 2.0 0.00 0.00 0.00 68 1023.9
20190617024923 58 271 0.0 6.0 0.00 0.00 0.00 67 1023.8
20190617023921 58 180 4.0 7.0 0.00 0.00 0.00 67 1023.6
20190617022918 58 187 6.0 9.0 0.00 0.00 0.00 67 1023.3
20190617021916 58 149 6.0 9.0 0.00 0.00 0.00 67 1023.0
20190617020914 58 135 4.0 6.0 0.00 0.00 0.00 70 1022.9
20190617015912 57 224 2.0 5.0 0.00 0.00 0.00 72 1023.1
20190617014910 57 63 1.0 5.0 0.00 0.00 0.00 73 1023.0
20190617013908 57 270 2.0 3.0 0.00 0.00 0.00 72 1022.9
20190617012906 58 261 1.0 2.0 0.00 0.00 0.00 71 1022.8
20190617011904 58 135 2.0 2.0 0.00 0.00 0.00 70 1022.6
20190617010903 58 165 1.0 5.0 0.00 0.00 0.00 70 1022.3
20190617005900 58 314 2.0 3.0 0.00 0.00 0.00 71 1021.7
20190617004859 58 158 0.0 2.0 0.00 0.00 0.00 68 1021.4
20190617003857 59 2 2.0 3.0 0.00 0.00 0.00 68 1021.1
20190617002855 59 61 2.0 5.0 0.00 0.00 0.00 66 1020.7
20190617001853 59 146 2.0 6.0 0.00 0.00 0.00 66 1020.2
20190617000851 59 137 2.0 3.0 0.00 0.00 0.00 66 1020.0
20190616235849 60 184 2.0 6.0 0.00 0.00 0.00 66 1020.3
20190616234847 59 45 5.0 11.0 0.00 0.00 0.00 63 1020.2
20190616233845 59 187 10.0 13.0 0.00 0.00 0.00 65 1020.0
20190616232843 59 203 7.0 13.0 0.00 0.00 0.00 68 1019.8
20190616231841 59 180 10.0 12.0 0.00 0.00 0.00 70 1020.0
20190616230838 59 172 6.0 10.0 0.00 0.00 0.00 71 1020.1
20190616225836 59 189 7.0 9.0 0.00 0.00 0.00 71 1020.0
20190616224835 58 182 7.0 9.0 0.00 0.00 0.00 73 1020.1
20190616223834 58 248 4.0 4.0 0.00 0.00 0.00 74 1019.8